Terug naar catalogus

NIMBUS 5

ActiefWeerSSO
NORAD 6305·PAYLOAD·🇺🇸 United States

Gelanceerd Dec 11, 1972 vanaf Vandenberg Space Force Base

Loading…

Volgende Passages (komende 24 uur)

TLE

VersSource: Space-Track

Epoch: Sep 14, 2026, 04:34 UTC

1 06305U 72097A   26257.19075521 -.00000024  00000-0  32898-4 0  9992
2 06305  99.7935 153.6890 0007775 294.3686 229.2286 13.44258960636686

Volg NIMBUS 5 in realtime met AllMySat

Download on the App Store